sat.trackr.live / text

‹ back to catalog

STARLINK-37054

NORAD 68082 · 2026-042P

PAYLOAD ACTIVE UNKNOWN

§ Identity

Operator
Country
US
Launch date
2026-03-04
Launch site
AFETR
Launch vehicle
Mass (kg)
RCS (m²)

Purposes: comms

External: N2YO · Heavens-Above · Gunter

§ Orbital elements

Epoch: 2026-09-17T14:03:03.076128Z

Period
93.85 min
Inclination
53.1539°
Eccentricity
0.0001494
Mean motion
15.34380375 rev/d
Perigee alt
461.7 km
Apogee alt
463.8 km
Semi-major
6,840.9 km
B*
-1.0518e-4
RAAN
3.2290°
Arg perigee
79.9441°
Mean anomaly
280.1730°
Rev number
3,174

§ Raw data

STARLINK-370541 68082U 26042P   26260.58545227 -.00003926  00000+0 -10518-3 0  99912 68082  53.1539   3.2290 0001494  79.9441 280.1730 15.34380375 31745

JSON: /api/v1/satellites/68082 · /tle

For live sub-satellite position, see the globe view (requires WebGL).

§ Visibility from observer

Set your observer location to see the next 7 days of passes ≥ 10°. The values pass through the URL so the page stays shareable.

No JS? Fill the form by hand. The geolocation button needs JavaScript.